Hourly Data Report for November 15, 2017

All times are specified in Local Standard Time (LST). Add 1 hour to adjust for Daylight Saving Time where and when it is observed.

DAUPHIN
MANITOBA

51°06'03.000" N
100°03'09.000" W
304.50 m
5040689
71036
YDN

Download Data

Hourly Data (November 2017)
Hourly Data Report for November 15, 2017
Temp Definition
°C
Dew Point Temp Definition
°C
Rel Hum Definition
%
Wind Dir Definition
10's deg

Wind Spd Definition
km/h
Visibility Definition
km
Stn Press Definition
kPa
Hmdx Definition


Wind Chill Definition


Weather Definition


TIME
00:00 Legend Double Dagger -8.8 -10.7 86 35 37 8.1 98.10   -19 Snow
01:00 Legend Double Dagger -9.3 -11.1 87 32 26 16.1 98.27   -18 Snow
02:00 Legend Double Dagger -9.8 -11.5 87 35 28 8.1 98.32   -19 Snow
03:00 Legend Double Dagger -10.2 -12.0 87 34 28 9.7 98.44   -19 Snow
04:00 Legend Double Dagger -10.2 -12.0 87 34 24 16.1 98.53   -19 Snow
05:00 Legend Double Dagger -10.6 -12.5 86 34 32 14.5 98.65   -21 Snow
06:00 Legend Double Dagger -10.6 -12.5 86 35 32 16.1 98.73   -21 Snow
07:00 Legend Double Dagger -10.9 -12.8 86 35 26 16.1 98.82   -20 Snow
08:00 Legend Double Dagger -11.5 -13.0 89 35 24 16.1 98.90   -21 Snow
09:00 Legend Double Dagger -11.5 -13.0 89 35 28 16.1 98.96   -21 Snow
10:00 Legend Double Dagger -11.8 -13.3 89 36 26 16.1 98.99   -21 Snow
11:00 Legend Double Dagger -11.7 -13.0 90 35 21 12.9 99.06   -20 Snow
12:00 Legend Double Dagger -11.6 -13.2 88 35 28 14.5 99.08   -21 Snow
13:00 Legend Double Dagger -11.7 -13.3 88 1 21 16.1 99.02   -20 Snow
14:00 Legend Double Dagger -11.8 -13.4 88 36 18 11.3 99.03   -20 Snow
15:00 Legend Double Dagger -11.8 -13.6 87 36 17 8.1 99.11   -19 Snow
16:00 Legend Double Dagger -11.8 -13.4 88 35 15 9.7 99.10   -19 Snow
17:00 Legend Double Dagger -12.1 -13.8 87 33 11 9.7 99.13   -18 Snow
18:00 Legend Double Dagger -12.5 -14.2 87 30 8 12.9 99.11   -17 Snow
19:00 Legend Double Dagger -12.6 -14.3 88 32 8 14.5 99.06   -18 Snow
20:00 Legend Double Dagger -12.6 -14.2 88 29 8 11.3 99.04   -18 Snow
21:00 Legend Double Dagger -12.7 -14.3 88 31 5 12.9 99.03   -16 Snow
22:00 Legend Double Dagger -13.0 -14.5 89   0 8.1 98.96     Snow
23:00 Legend Double Dagger -12.9 -14.4 89 11 4 12.9 98.87   -16 Snow

Notes on Data Quality.

Legend

  • E = Estimated
  • M = Missing
  • NA = Not Available
  • ‡ = Partner data that is not subject to review by the National Climate Archives
Date modified: